• In Latvia
  • List of Countries
  • For 7 days
  • Water Temperature
  • Satellite Maps
  • Weather Map
  • Weather Widgets
  • user-avatar
    Login

    Hourly Weather Dobele

    Today, 24 October, Tuesday

    Time Temperature Precipitation Wind Pressure Humidity
    00:00 -2°C° 0 mm 3 mps 766 mmHg 77%
    01:00 -2°C° 0 mm 3 mps 766 mmHg 78%
    02:00 -2°C° 0 mm 3 mps 766 mmHg 79%
    03:00 -2°C° 0 mm 3 mps 766 mmHg 80%
    04:00 -2°C° 0 mm 3 mps 767 mmHg 81%
    05:00 -2°C° 0 mm 3 mps 767 mmHg 82%
    06:00 -2°C° 0 mm 3 mps 767 mmHg 82%
    07:00 -2°C° 0 mm 3 mps 767 mmHg 82%
    08:00 -2°C° 0 mm 3 mps 768 mmHg 82%
    09:00 -1°C° 0 mm 3 mps 768 mmHg 75%
    10:00 -1°C° 0 mm 4 mps 768 mmHg 69%
    11:00 0°C° 0 mm 4 mps 768 mmHg 63%
    12:00 +1°C° 0 mm 4 mps 768 mmHg 60%
    13:00 +3°C° 0 mm 4 mps 768 mmHg 58%
    14:00 +3°C° 0 mm 4 mps 768 mmHg 56%
    15:00 +2°C° 0 mm 3 mps 768 mmHg 60%
    16:00 +1°C° 0 mm 3 mps 768 mmHg 65%
    17:00 0°C° 0 mm 3 mps 768 mmHg 69%
    18:00 0°C° 0 mm 3 mps 768 mmHg 70%
    19:00 0°C° 0 mm 3 mps 768 mmHg 71%
    20:00 -1°C° 0 mm 3 mps 768 mmHg 72%
    21:00 -1°C° 0 mm 3 mps 768 mmHg 72%
    22:00 -2°C° 0 mm 4 mps 768 mmHg 73%
    23:00 -2°C° 0 mm 4 mps 768 mmHg 73%

    Tomorrow, 25 October, Wednesday

    Time Temperature Precipitation Wind Pressure Humidity
    00:00 -2°C° 0 mm 4 mps 768 mmHg 74%
    01:00 -2°C° 0 mm 4 mps 768 mmHg 75%
    02:00 -2°C° 0 mm 4 mps 767 mmHg 76%
    03:00 -2°C° 0 mm 4 mps 767 mmHg 77%
    04:00 -2°C° 0 mm 4 mps 766 mmHg 77%
    05:00 -2°C° 0 mm 5 mps 766 mmHg 78%
    06:00 -2°C° 0 mm 5 mps 766 mmHg 78%
    07:00 -2°C° 0 mm 5 mps 765 mmHg 77%
    08:00 -3°C° 0 mm 6 mps 765 mmHg 76%
    09:00 -2°C° 0 mm 6 mps 764 mmHg 72%
    10:00 -1°C° 0 mm 7 mps 764 mmHg 68%
    11:00 0°C° 0 mm 8 mps 763 mmHg 64%
    12:00 +1°C° 0.2 mm 8 mps 762 mmHg 65%
    13:00 +1°C° 0.2 mm 8 mps 761 mmHg 65%
    14:00 +1°C° 0.2 mm 8 mps 760 mmHg 66%
    15:00 +1°C° 1.3 mm 9 mps 759 mmHg 71%
    16:00 +1°C° 1.3 mm 9 mps 757 mmHg 76%
    17:00 0°C° 1.3 mm 10 mps 756 mmHg 82%
    18:00 +1°C° 1.7 mm 10 mps 755 mmHg 84%
    19:00 +1°C° 1.7 mm 10 mps 754 mmHg 86%
    20:00 +1°C° 1.7 mm 10 mps 753 mmHg 88%
    21:00 +2°C° 0.5 mm 8 mps 753 mmHg 90%
    22:00 +4°C° 0.5 mm 7 mps 753 mmHg 91%
    23:00 +6°C° 0.5 mm 5 mps 753 mmHg 93%

    Day after tomorrow, 26 October, Thursday

    Time Temperature Precipitation Wind Pressure Humidity
    00:00 +6°C° 0 mm 5 mps 753 mmHg 93%
    01:00 +6°C° 0 mm 4 mps 753 mmHg 93%
    02:00 +6°C° 0 mm 4 mps 753 mmHg 94%
    03:00 +6°C° 0 mm 4 mps 753 mmHg 94%
    04:00 +7°C° 0 mm 4 mps 753 mmHg 93%
    05:00 +7°C° 0 mm 4 mps 753 mmHg 93%
    06:00 +7°C° 0.1 mm 4 mps 753 mmHg 93%
    07:00 +8°C° 0.1 mm 4 mps 753 mmHg 92%
    08:00 +8°C° 0.1 mm 4 mps 753 mmHg 92%
    09:00 +8°C° 0.1 mm 4 mps 753 mmHg 89%
    10:00 +9°C° 0.1 mm 5 mps 753 mmHg 87%
    11:00 +9°C° 0.1 mm 5 mps 753 mmHg 84%
    12:00 +9°C° 0.1 mm 5 mps 753 mmHg 83%
    13:00 +10°C° 0.1 mm 5 mps 753 mmHg 81%
    14:00 +10°C° 0.1 mm 5 mps 753 mmHg 80%
    15:00 +9°C° 0.1 mm 5 mps 753 mmHg 83%
    16:00 +10°C° 0.1 mm 4 mps 753 mmHg 85%
    17:00 +8°C° 0.1 mm 4 mps 753 mmHg 88%
    18:00 +8°C° 0 mm 4 mps 752 mmHg 89%
    19:00 +7°C° 0 mm 4 mps 752 mmHg 90%
    20:00 +7°C° 0 mm 4 mps 752 mmHg 91%
    21:00 +7°C° 0 mm 4 mps 752 mmHg 92%
    22:00 +7°C° 0 mm 4 mps 751 mmHg 92%
    23:00 +7°C° 0 mm 4 mps 751 mmHg 92%

    27 October, Friday

    Time Temperature Precipitation Wind Pressure Humidity
    00:00 +7°C° 0 mm 4 mps 751 mmHg 93%
    01:00 +6°C° 0 mm 4 mps 750 mmHg 93%
    02:00 +7°C° 0 mm 3 mps 750 mmHg 94%
    03:00 +7°C° 0 mm 3 mps 749 mmHg 94%
    04:00 +7°C° 0 mm 3 mps 749 mmHg 94%
    05:00 +5°C° 0 mm 3 mps 749 mmHg 95%
    06:00 +5°C° 0 mm 3 mps 748 mmHg 95%
    07:00 +5°C° 0 mm 3 mps 748 mmHg 96%
    08:00 +5°C° 0 mm 3 mps 747 mmHg 96%
    09:00 +7°C° 0.1 mm 3 mps 747 mmHg 93%
    10:00 +8°C° 0.1 mm 3 mps 747 mmHg 90%
    11:00 +9°C° 0.1 mm 3 mps 747 mmHg 86%
    12:00 +10°C° 0.2 mm 3 mps 746 mmHg 84%
    13:00 +10°C° 0.2 mm 3 mps 746 mmHg 82%
    14:00 +10°C° 0.2 mm 2 mps 746 mmHg 80%
    15:00 +10°C° 0.3 mm 2 mps 745 mmHg 84%
    16:00 +9°C° 0.3 mm 2 mps 745 mmHg 87%
    17:00 +9°C° 0.3 mm 1 mps 745 mmHg 90%
    18:00 +8°C° 0 mm 1 mps 744 mmHg 91%
    19:00 +8°C° 0 mm 1 mps 744 mmHg 93%
    20:00 +7°C° 0 mm 1 mps 744 mmHg 94%
    21:00 +7°C° 0.3 mm 1 mps 744 mmHg 95%
    22:00 +7°C° 0.3 mm 1 mps 744 mmHg 95%
    23:00 +7°C° 0.3 mm 1 mps 744 mmHg 96%

    28 October, Saturday

    Time Temperature Precipitation Wind Pressure Humidity
    00:00 +6°C° 1.2 mm 2 mps 744 mmHg 96%
    01:00 +6°C° 1.2 mm 2 mps 744 mmHg 96%
    02:00 +6°C° 1.2 mm 2 mps 744 mmHg 96%
    03:00 +5°C° 1.2 mm 3 mps 744 mmHg 95%
    04:00 +5°C° 1.2 mm 3 mps 744 mmHg 94%
    05:00 +5°C° 1.2 mm 3 mps 743 mmHg 93%
    06:00 +4°C° 0.2 mm 3 mps 743 mmHg 93%
    07:00 +4°C° 0.2 mm 3 mps 743 mmHg 92%
    08:00 +3°C° 0.2 mm 3 mps 743 mmHg 92%
    09:00 +4°C° 0 mm 3 mps 743 mmHg 88%
    10:00 +5°C° 0 mm 3 mps 743 mmHg 83%
    11:00 +7°C° 0 mm 3 mps 743 mmHg 78%
    12:00 +7°C° 0 mm 3 mps 742 mmHg 76%
    13:00 +7°C° 0 mm 3 mps 742 mmHg 74%
    14:00 +7°C° 0 mm 3 mps 742 mmHg 72%
    15:00 +7°C° 0 mm 2 mps 741 mmHg 76%
    16:00 +6°C° 0 mm 2 mps 741 mmHg 80%
    17:00 +5°C° 0 mm 2 mps 741 mmHg 84%
    18:00 +5°C° 0.1 mm 2 mps 741 mmHg 86%
    19:00 +5°C° 0.1 mm 2 mps 740 mmHg 88%
    20:00 +5°C° 0.1 mm 2 mps 740 mmHg 89%
    21:00 +5°C° 0.2 mm 2 mps 740 mmHg 91%
    22:00 +5°C° 0.2 mm 2 mps 740 mmHg 92%
    23:00 +5°C° 0.2 mm 2 mps 740 mmHg 94%

    29 October, Sunday

    Time Temperature Precipitation Wind Pressure Humidity
    00:00 +5°C° 0.3 mm 2 mps 740 mmHg 94%
    01:00 +5°C° 0.3 mm 2 mps 740 mmHg 95%
    02:00 +5°C° 0.3 mm 2 mps 740 mmHg 95%
    03:00 +5°C° 0.2 mm 2 mps 740 mmHg 95%
    04:00 +5°C° 0.2 mm 2 mps 740 mmHg 95%
    05:00 +5°C° 0.2 mm 2 mps 740 mmHg 96%
    06:00 +5°C° 0.2 mm 2 mps 740 mmHg 96%
    07:00 +5°C° 0.2 mm 2 mps 741 mmHg 96%
    08:00 +5°C° 0.2 mm 2 mps 741 mmHg 96%
    09:00 +5°C° 0.3 mm 2 mps 741 mmHg 94%
    10:00 +6°C° 0.3 mm 2 mps 742 mmHg 92%
    11:00 +6°C° 0.3 mm 2 mps 742 mmHg 91%
    12:00 +7°C° 0.4 mm 2 mps 742 mmHg 90%
    13:00 +7°C° 0.4 mm 2 mps 743 mmHg 89%
    14:00 +8°C° 0.4 mm 1 mps 743 mmHg 89%
    15:00 +7°C° 0.8 mm 2 mps 743 mmHg 90%
    16:00 +7°C° 0.8 mm 2 mps 744 mmHg 92%
    17:00 +6°C° 0.8 mm 2 mps 744 mmHg 93%
    18:00 +6°C° 0.5 mm 2 mps 744 mmHg 92%
    19:00 +6°C° 0.5 mm 2 mps 745 mmHg 91%
    20:00 +5°C° 0.5 mm 3 mps 745 mmHg 90%
    21:00 +4°C° 0 mm 3 mps 745 mmHg 90%
    22:00 +4°C° 0 mm 2 mps 745 mmHg 89%
    23:00 +4°C° 0 mm 2 mps 746 mmHg 89%

    30 October, Monday

    Time Temperature Precipitation Wind Pressure Humidity
    00:00 +4°C° 0 mm 2 mps 746 mmHg 90%
    01:00 +3°C° 0 mm 2 mps 746 mmHg 90%
    02:00 +3°C° 0 mm 2 mps 746 mmHg 91%
    03:00 +3°C° 0 mm 2 mps 747 mmHg 92%
    04:00 +3°C° 0 mm 2 mps 747 mmHg 93%
    05:00 +3°C° 0 mm 2 mps 747 mmHg 94%
    06:00 +3°C° 0 mm 2 mps 747 mmHg 94%
    07:00 +2°C° 0 mm 3 mps 747 mmHg 94%
    08:00 +2°C° 0 mm 3 mps 747 mmHg 94%
    09:00 +3°C° 0 mm 3 mps 747 mmHg 89%
    10:00 +4°C° 0 mm 3 mps 747 mmHg 84%
    11:00 +6°C° 0 mm 4 mps 747 mmHg 79%
    12:00 +6°C° 0 mm 4 mps 747 mmHg 78%
    13:00 +6°C° 0 mm 4 mps 747 mmHg 76%
    14:00 +6°C° 0 mm 4 mps 746 mmHg 75%
    15:00 +6°C° 0 mm 4 mps 746 mmHg 78%
    16:00 +6°C° 0 mm 4 mps 745 mmHg 81%
    17:00 +5°C° 0 mm 5 mps 744 mmHg 84%
    18:00 +6°C° 0.1 mm 5 mps 743 mmHg 84%
    19:00 +5°C° 0.1 mm 6 mps 743 mmHg 85%
    20:00 +6°C° 0.1 mm 7 mps 742 mmHg 86%
    21:00 +6°C° 0.4 mm 7 mps 741 mmHg 86%
    22:00 +6°C° 0.4 mm 7 mps 740 mmHg 86%
    23:00 +7°C° 0.4 mm 6 mps 740 mmHg 86%
    Show more